When you browse on this site, cookies collect data to enhance your experience and personalize the content and advertising you see.
Visit our Privacy Policy to learn more. By continuing to use the site, you agree to this use of cookies and data.
  • In Austria
  • List of Countries
  • For 7 days
  • Water Temperature
  • Satellite Maps
  • Weather Map
  • News
  • Weather Widgets
  • user-avatar
    Login

    Hourly Weather Leipzig

    Today, 21 January, Monday

    Time Temperature Precipitation Wind Pressure Humidity
    00:00 -3°C° 0 mm 1 mps 756 mmHg 75%
    01:00 -4°C° 0 mm 0 mps 756 mmHg 75%
    02:00 -4°C° 0 mm 0 mps 756 mmHg 75%
    03:00 -4°C° 0 mm 0 mps 756 mmHg 74%
    04:00 -4°C° 0 mm 0 mps 756 mmHg 74%
    05:00 -4°C° 0 mm 0 mps 756 mmHg 74%
    06:00 -4°C° 0 mm 0 mps 756 mmHg 74%
    07:00 -4°C° 0 mm 0 mps 756 mmHg 74%
    08:00 -4°C° 0 mm 0 mps 756 mmHg 71%
    09:00 -2°C° 0 mm 1 mps 756 mmHg 68%
    10:00 -2°C° 0 mm 1 mps 757 mmHg 64%
    11:00 -1°C° 0 mm 1 mps 756 mmHg 60%
    12:00 0°C° 0 mm 1 mps 756 mmHg 56%
    13:00 +1°C° 0 mm 1 mps 755 mmHg 51%
    14:00 0°C° 0 mm 1 mps 755 mmHg 54%
    15:00 0°C° 0 mm 1 mps 755 mmHg 56%
    16:00 0°C° 0 mm 1 mps 754 mmHg 58%
    17:00 -1°C° 0 mm 1 mps 754 mmHg 61%
    18:00 -1°C° 0 mm 1 mps 754 mmHg 64%
    19:00 -4°C° 0 mm 2 mps 754 mmHg 67%
    20:00 -4°C° 0 mm 2 mps 754 mmHg 69%
    21:00 -4°C° 0 mm 2 mps 754 mmHg 71%
    22:00 -4°C° 0 mm 2 mps 753 mmHg 74%
    23:00 -4°C° 0 mm 2 mps 753 mmHg 75%

    Tomorrow, 22 January, Tuesday

    Time Temperature Precipitation Wind Pressure Humidity
    00:00 -5°C° 0 mm 3 mps 753 mmHg 75%
    01:00 -5°C° 0 mm 3 mps 752 mmHg 76%
    02:00 -6°C° 0 mm 3 mps 752 mmHg 75%
    03:00 -6°C° 0 mm 3 mps 751 mmHg 75%
    04:00 -6°C° 0 mm 3 mps 751 mmHg 74%
    05:00 -6°C° 0 mm 3 mps 750 mmHg 73%
    06:00 -6°C° 0 mm 3 mps 750 mmHg 73%
    07:00 -6°C° 0 mm 3 mps 749 mmHg 72%
    08:00 -6°C° 0 mm 3 mps 749 mmHg 70%
    09:00 -5°C° 0 mm 3 mps 749 mmHg 67%
    10:00 -5°C° 0 mm 4 mps 748 mmHg 64%
    11:00 -4°C° 0 mm 3 mps 747 mmHg 60%
    12:00 -2°C° 0 mm 3 mps 747 mmHg 56%
    13:00 0°C° 0 mm 3 mps 746 mmHg 52%
    14:00 -1°C° 0 mm 3 mps 745 mmHg 55%
    15:00 -1°C° 0 mm 3 mps 745 mmHg 58%
    16:00 -1°C° 0 mm 2 mps 744 mmHg 61%
    17:00 -2°C° 0 mm 2 mps 743 mmHg 66%
    18:00 -3°C° 0 mm 2 mps 743 mmHg 71%
    19:00 -3°C° 0 mm 2 mps 743 mmHg 76%
    20:00 -3°C° 0 mm 2 mps 743 mmHg 76%
    21:00 -4°C° 0 mm 2 mps 742 mmHg 77%
    22:00 -4°C° 0 mm 2 mps 742 mmHg 78%
    23:00 -4°C° 0 mm 2 mps 742 mmHg 76%

    Day after tomorrow, 23 January, Wednesday

    Time Temperature Precipitation Wind Pressure Humidity
    00:00 -4°C° 0 mm 2 mps 742 mmHg 75%
    01:00 -4°C° 0 mm 2 mps 741 mmHg 73%
    02:00 -4°C° 0 mm 2 mps 741 mmHg 72%
    03:00 -5°C° 0 mm 2 mps 741 mmHg 71%
    04:00 -5°C° 0 mm 2 mps 740 mmHg 71%
    05:00 -5°C° 0 mm 2 mps 740 mmHg 72%
    06:00 -5°C° 0 mm 2 mps 740 mmHg 73%
    07:00 -5°C° 0 mm 2 mps 740 mmHg 74%
    08:00 -5°C° 0 mm 2 mps 741 mmHg 71%
    09:00 -2°C° 0 mm 1 mps 741 mmHg 68%
    10:00 -2°C° 0 mm 1 mps 741 mmHg 66%
    11:00 -1°C° 0 mm 1 mps 741 mmHg 63%
    12:00 -2°C° 0 mm 2 mps 741 mmHg 60%
    13:00 -1°C° 0 mm 2 mps 741 mmHg 57%
    14:00 -1°C° 0 mm 2 mps 741 mmHg 60%
    15:00 -1°C° 0 mm 2 mps 741 mmHg 62%
    16:00 -2°C° 0 mm 2 mps 741 mmHg 65%
    17:00 -2°C° 0 mm 2 mps 742 mmHg 67%
    18:00 -3°C° 0 mm 2 mps 743 mmHg 69%
    19:00 -3°C° 0 mm 2 mps 743 mmHg 71%
    20:00 -3°C° 0 mm 2 mps 743 mmHg 71%
    21:00 -4°C° 0 mm 2 mps 744 mmHg 70%
    22:00 -2°C° 0 mm 1 mps 744 mmHg 70%
    23:00 -2°C° 0 mm 1 mps 745 mmHg 71%

    24 January, Thursday

    Time Temperature Precipitation Wind Pressure Humidity
    00:00 -2°C° 0 mm 1 mps 745 mmHg 72%
    01:00 -2°C° 0 mm 1 mps 745 mmHg 73%
    02:00 -2°C° 0 mm 1 mps 745 mmHg 73%
    03:00 -2°C° 0 mm 1 mps 746 mmHg 73%
    04:00 -2°C° 0 mm 1 mps 746 mmHg 73%
    05:00 -2°C° 0 mm 1 mps 746 mmHg 74%
    06:00 -2°C° 0 mm 1 mps 747 mmHg 74%
    07:00 -3°C° 0 mm 0 mps 747 mmHg 75%
    08:00 -2°C° 0 mm 1 mps 747 mmHg 74%
    09:00 -1°C° 0 mm 1 mps 748 mmHg 73%
    10:00 -1°C° 0 mm 1 mps 748 mmHg 71%
    11:00 0°C° 0 mm 1 mps 748 mmHg 68%
    12:00 0°C° 0 mm 1 mps 748 mmHg 66%
    13:00 +1°C° 0 mm 1 mps 748 mmHg 63%
    14:00 +1°C° 0 mm 1 mps 748 mmHg 63%
    15:00 +1°C° 0 mm 1 mps 749 mmHg 64%
    16:00 +1°C° 0 mm 1 mps 749 mmHg 65%
    17:00 0°C° 0 mm 1 mps 749 mmHg 66%
    18:00 0°C° 0 mm 1 mps 749 mmHg 67%
    19:00 0°C° 0 mm 1 mps 750 mmHg 69%
    20:00 0°C° 0 mm 1 mps 750 mmHg 72%
    21:00 -1°C° 0 mm 1 mps 750 mmHg 74%
    22:00 -1°C° 0 mm 1 mps 750 mmHg 77%
    23:00 -1°C° 0 mm 1 mps 750 mmHg 78%

    25 January, Friday

    Time Temperature Precipitation Wind Pressure Humidity
    00:00 -1°C° 0 mm 1 mps 750 mmHg 78%
    01:00 -4°C° 0 mm 2 mps 751 mmHg 79%
    02:00 -4°C° 0 mm 2 mps 750 mmHg 80%
    03:00 -4°C° 0 mm 2 mps 750 mmHg 81%
    04:00 -4°C° 0 mm 2 mps 750 mmHg 83%
    05:00 -4°C° 0 mm 2 mps 751 mmHg 84%
    06:00 -5°C° 0 mm 2 mps 751 mmHg 85%
    07:00 -5°C° 0 mm 2 mps 751 mmHg 86%
    08:00 -4°C° 0 mm 2 mps 751 mmHg 84%
    09:00 -3°C° 0 mm 2 mps 751 mmHg 81%
    10:00 -3°C° 0 mm 2 mps 752 mmHg 79%
    11:00 -2°C° 0 mm 2 mps 752 mmHg 75%
    12:00 -1°C° 0 mm 2 mps 752 mmHg 71%
    13:00 +1°C° 0 mm 2 mps 752 mmHg 68%
    14:00 +2°C° 0 mm 1 mps 751 mmHg 69%
    15:00 +1°C° 0 mm 1 mps 751 mmHg 71%
    16:00 +1°C° 0 mm 1 mps 751 mmHg 73%
    17:00 +1°C° 0 mm 1 mps 751 mmHg 74%
    18:00 -2°C° 0 mm 2 mps 751 mmHg 76%
    19:00 -3°C° 0 mm 2 mps 752 mmHg 78%
    20:00 -3°C° 0 mm 2 mps 752 mmHg 80%
    21:00 -3°C° 0 mm 2 mps 752 mmHg 82%
    22:00 -4°C° 0 mm 3 mps 752 mmHg 83%
    23:00 -4°C° 0 mm 3 mps 751 mmHg 84%

    26 January, Saturday

    Time Temperature Precipitation Wind Pressure Humidity
    00:00 -4°C° 0 mm 3 mps 751 mmHg 85%
    01:00 -4°C° 0 mm 3 mps 751 mmHg 86%
    02:00 -4°C° 0 mm 4 mps 750 mmHg 86%
    03:00 -4°C° 0 mm 4 mps 750 mmHg 85%
    04:00 -4°C° 0 mm 4 mps 749 mmHg 85%
    05:00 -5°C° 0 mm 5 mps 749 mmHg 85%
    06:00 -4°C° 0 mm 5 mps 748 mmHg 86%
    07:00 -4°C° 0 mm 5 mps 748 mmHg 86%
    08:00 -2°C° 0 mm 5 mps 747 mmHg 84%
    09:00 -1°C° 0 mm 5 mps 747 mmHg 82%
    10:00 -1°C° 0 mm 6 mps 747 mmHg 80%
    11:00 +1°C° 0 mm 5 mps 746 mmHg 78%
    12:00 +2°C° 0 mm 5 mps 745 mmHg 77%
    13:00 +3°C° 0 mm 5 mps 745 mmHg 75%
    14:00 +3°C° 0 mm 5 mps 744 mmHg 78%
    15:00 +3°C° 0 mm 5 mps 743 mmHg 81%
    16:00 +3°C° 0 mm 4 mps 743 mmHg 84%
    17:00 +2°C° 0 mm 5 mps 742 mmHg 85%
    18:00 +1°C° 0 mm 5 mps 741 mmHg 86%
    19:00 +1°C° 0 mm 5 mps 741 mmHg 87%
    20:00 +1°C° 0 mm 5 mps 740 mmHg 87%
    21:00 +1°C° 0 mm 6 mps 740 mmHg 86%
    22:00 +1°C° 0 mm 6 mps 739 mmHg 85%
    23:00 +1°C° 0 mm 6 mps 738 mmHg 85%
    Show more